SCP
0 0 0 0 0 0 0 0 0 0 0 0 0 0 0 0 0 0 0 0 0 0 0 0 0 0 0 0 0 0 0 0 0 0 0 0 0 0 0 0 0 0 0 0
0 0 0 0 0 0 0 0 0 0 0 0 0 0 0 0 0 0 0 0 0 0 0 0 0 0 0 0 0 0 0 0 0 0 0 0 0 0 0 0 0 0 0 0
0 0 0 0 0 0 0 0 0 0 0 0 0 0 0 0 0 0 0 0 0 0 0 0 0 0 0 0 0 0 0 0 0 0 0 0 0 0 0 0 0 0 0 0
0 0 0 0 0 0 0 0 0 0 0 0 0 0 0 0 0 0 0 0 0 0 0 0 0 0 0 0 0 0 0 0 0 0 0 0 0 0 0 0 0 0 0 0
0 0 0 0 0 0 0 0 0 0 0 0 0 0 0 0 0 0 0 0 0 0 0 0 0 0 0 0 0 0 0 0 0 0 0 0 0 0 0 0 0 0 0 0
0 0 0 0 0 0 0 0 0 0 0 0 0 0 0 0 0 0 0 0 0 0 0 0 0 0 0 0 0 0 0 0 0 0 0 0 0 0 0 0 0 0 0 0
0 0 0 0 0 0 0 0 0 0 0 0 0 0 0 0 0 0 0 0 0 0 0 0 0 0 0 0 0 0 0 0 0 0 0 0 0 0 0 0 0 0 0 0
0 0 0 0 0 0 0 0 0 0 0 0 0 0 0 0 0 0 0 0 0 0 0 0 0 0 0 0 0 0 0 0 0 0 0 0 0 0 0 0 0 0 0 0
0 0 0 0 0 0 0 0 0 0 0 0 0 0 0 0 0 0 0 0 0 0 0 0 0 0 0 0 0 0 0 0 0 0 0 0 0 0 0 0 0 0 0 0
0 0 0 0 0 0 0 0 0 0 0 0 0 0 0 0 0 0 0 0 0 0 0 0 0 0 0 0 0 0 0 0 0 0 0 0 0 0 0 0 0 0 0 0
0 0 0 0 0 0 0 0 0 0 0 0 0 0 0 0 0 0 0 0 0 0 0 0 0 0 0 0 0 0 0 0 0 0 0 0 0 0 0 0 0 0 0 0
0 0 0 0 0 0 0 0 0 0 0 0 0 0 0 0 0 0 0 0 0 0 0 0 0 0 0 0 0 0 0 0 0 0 0 0 0 0 0 0 0 0 0 0
0 0 0 0 0 0 0 0 0 0 0 0 0 0 0 0 0 0 0 0 0 0 0 0 0 0 0 0 0 0 0 0 0 0 0 0 0 0 0 0 0 0 0 0
0 0 0 0 0 0 0 0 0 0 0 0 0 0 0 0 0 0 0 0 0 0 0 0 0 0 0 0 0 0 0 0 0 0 0 0 0 0 0 0 0 0 0 0
0 0 0 0 0 0 0 0 0 0 0 0 0 0 0 0 0 0 0 0 0 0 0 0 0 0 0 0 0 0 0 0 0 0 0 0 0 0 0 0 0 0 0 0
0 0 0 0 0 0 0 0 0 0 0 0 0 0 0 0 0 0 0 0 0 0 0 0 0 0 0 0 0 0 0 0 0 0 0 0 0 0 0 0 0 0 0 0
0 0 0 0 0 0 0 0 0 0 0 0 0 0 0 0 0 0 0 0 0 0 0 0 0 0 0 0 0 0 0 0 0 0 0 0 0 0 0 0 0 0 0 0
0 0 0 0 0 0 0 0 0 0 0 0 0 0 0 0 0 0 0 0 0 0 0 0 0 0 0 0 0 0 0 0 0 0 0 0 0 0 0 0 0 0 0 0
0 0 0 0 0 0 0 0 0 0 0 0 0 0 0 0 0 0 0 0 0 0 0 0 0 0 0 0 0 0 0 0 0 0 0 0 0 0 0 0 0 0 0 0
0 0 0 0 0 0 0 0 0 0 0 0 0 0 0 0 0 0 0 0 0 0 0 0 0 0 0 0 0 0 0 0 0 0 0 0 0 0 0 0 0 0 0 0
0 0 0 0 0 0 0 0 0 0 0 0 0 0 0 0 0 0 0 0 0 0 0 0 0 0 0 0 0 0 0 0 0 0 0 0 0 0 0 0 0 0 0 0
0 0 0 0 0 0 0 0 0 0 0 0 0 0 0 0 0 0 0 0 0 0 0 0 0 0 0 0 0 0 0 0 0 0 0 0 0 0 0 0 0 0 0 0
0 0 0 0 0 0 0 0 0 0 0 0 0 0 0 0 0 0 0 0 0 0 0 0 0 0 0 0 0 0 0 0 0 0 0 0 0 0 0 0 0 0 0 0
0 0 0 0 0 0 0 0 0 0 0 0 0 0 0 0 0 0 0 0 0 0 0 0 0 0 0 0 0 0 0 0 0 0 0 0 0 0 0 0 0 0 0 0
0 0 0 0 0 0 0 0 0 0 0 0 0 0 0 0 0 0 0 0 0 0 0 0 0 0 0 0 0 0 0 0 0 0 0 0 0 0 0 0 0 0 0 0
0 0 0 0 0 0 0 0 0 0 0 0 0 0 0 0 0 0 0 0 0 0 0 0 0 0 0 0 0 0 0 0 0 0 0 0 0 0 0 0 0 0 0 0
0 0 0 0 0 0 0 0 0 0 0 0 0 0 0 0 0 0 0 0 0 0 0 0 0 0 0 0 0 0 0 0 0 0 0 0 0 0 0 0 0 0 0 0
Wind_Speed
4 4 3 4 5 3 4 8 8 9 10 12 13 14 13 12 12 12 11 11 12 11 9 8 8 7 7 6 6 6 5 5 5 5 4 4 3 3 3 3 4 4 3 4
2 3 3 5 6 5 5 5 5 5 8 9 8 8 9 12 15 14 14 13 12 12 11 10 9 8 7 6 6 6 6 5 5 4 4 4 4 3 3 3 3 3 4 4
3 3 3 5 5 3 3 3 6 8 9 6 8 11 14 14 15 15 15 13 13 12 12 11 10 9 9 7 6 6 5 5 5 5 4 4 3 3 3 4 3 3 4 4
1 3 2 9 3 1 1 2 2 4 6 11 13 13 11 12 14 14 14 14 13 11 10 9 8 7 7 6 6 5 5 4 4 4 4 3 3 3 4 3 3 4 5 5
3 2 5 6 3 0 1 3 3 2 6 6 5 6 2 7 11 15 15 13 12 11 10 9 9 8 7 6 5 5 4 4 4 4 4 3 3 4 4 3 4 4 5 6
3 3 5 6 5 3 2 2 3 3 3 5 8 5 7 7 9 10 10 10 10 9 8 9 8 8 8 6 5 5 5 5 4 4 4 4 5 5 4 4 5 5 5 6
2 3 6 5 4 2 4 5 4 1 1 4 7 8 7 7 8 9 10 10 11 10 9 9 9 8 7 6 7 6 5 4 4 4 4 5 4 4 4 4 4 5 6 6
2 3 7 3 1 3 7 3 2 1 1 2 3 4 6 9 9 9 9 9 10 9 8 7 8 9 8 7 7 5 4 4 3 4 3 3 4 4 4 4 4 5 5 5
6 7 5 4 5 5 3 3 2 2 1 1 3 5 7 8 10 10 10 10 9 9 8 6 7 8 9 7 5 5 4 4 3 4 4 3 4 5 4 4 3 4 4 4
2 6 5 5 5 5 3 3 2 1 2 2 4 5 7 8 8 8 8 9 8 9 8 7 7 7 8 6 6 5 4 4 4 3 4 4 3 4 4 4 4 4 4 5
3 4 3 5 6 6 5 3 1 1 2 4 6 7 9 9 9 8 7 6 8 9 9 9 7 7 6 6 6 5 5 4 4 4 4 4 4 4 5 6 6 6 5 5
7 8 6 6 6 4 4 3 2 1 2 1 5 8 8 8 7 7 7 7 7 7 7 7 7 7 6 6 7 6 4 4 4 3 4 4 4 5 7 8 10 11 10 8
6 5 4 4 3 3 3 2 2 2 2 2 3 6 7 6 6 6 6 7 7 8 7 6 6 6 6 6 6 6 5 5 4 3 4 4 3 3 5 6 7 9 10 11
4 4 2 2 2 3 4 4 4 5 4 3 3 4 6 5 5 5 5 5 5 5 5 5 5 5 5 5 5 5 5 5 5 4 4 4 4 4 4 4 4 5 6 9
3 3 4 4 4 4 5 7 8 7 6 6 5 6 7 7 6 5 4 4 5 4 4 4 4 4 4 4 4 5 4 4 4 4 4 4 4 4 4 4 4 5 4 5
5 6 7 9 8 6 7 8 8 6 5 6 6 6 6 6 5 5 4 5 5 3 3 4 4 4 3 4 4 3 4 6 5 4 4 4 3 4 4 4 4 4 4 5
8 6 6 7 7 7 7 7 7 6 6 7 6 6 7 7 7 5 4 3 3 2 2 2 3 3 3 3 3 3 3 4 5 3 3 4 4 4 4 4 4 4 5 6
7 7 7 7 6 6 6 7 7 7 6 5 6 7 7 6 4 3 2 3 3 2 1 1 2 1 1 2 2 2 2 2 3 3 4 4 4 4 4 4 5 5 5 4
9 9 8 7 6 5 6 6 5 5 5 6 6 5 4 3 3 2 3 3 3 1 3 2 1 1 0 1 1 1 2 2 3 3 3 4 4 4 4 4 4 4 4 3
9 8 8 7 5 5 5 5 5 5 4 5 5 5 4 2 2 2 3 2 1 2 2 1 1 1 1 2 2 1 2 2 3 3 3 3 3 4 3 3 3 4 4 3
7 7 7 6 5 6 5 4 4 4 3 3 4 3 2 1 2 3 3 1 3 2 1 1 0 1 1 2 2 1 2 2 3 3 3 3 3 3 3 4 3 3 3 3
5 6 5 5 5 5 4 4 3 3 3 2 2 2 2 2 2 2 1 2 2 1 0 1 1 2 3 3 2 2 2 3 3 2 2 3 3 3 3 4 3 3 3 3
4 4 4 4 3 3 4 4 3 2 1 0 1 1 1 1 1 2 0 2 1 1 0 1 3 4 5 2 2 2 2 3 3 2 2 2 2 3 3 4 3 3 3 3
2 2 2 2 3 4 4 4 4 3 2 1 1 1 2 2 1 0 2 2 1 1 1 2 4 5 4 1 1 1 2 2 2 2 2 2 2 3 3 3 3 3 3 3
1 2 2 3 3 2 1 2 3 3 3 2 2 1 1 2 2 2 1 1 1 1 2 3 4 4 2 1 1 1 1 2 2 2 1 2 2 3 3 2 3 3 2 2
1 1 1 0 0 0 1 2 2 2 2 2 2 1 1 0 0 0 0 1 2 2 2 2 2 2 1 1 1 1 1 2 2 2 2 2 2 2 2 2 3 2 2 1
2 2 2 2 2 2 2 2 1 1 1 1 1 2 2 1 1 1 1 1 1 1 2 2 1 1 1 1 1 1 1 1 1 1 2 2 1 1 2 2 2 2 2 2
Wind_Direction
223 227 201 234 252 242 203 191 192 214 197 205 194 185 181 171 160 156 160 165 167 168 169 167 163 163 162 165 167 163 161 174 196 204 205 209 217 229 238 243 244 248 256 264
297 269 257 272 280 273 256 220 214 191 215 217 190 168 162 164 161 164 169 172 173 172 169 171 170 170 169 172 176 168 172 192 202 200 203 210 221 229 236 246 253 256 261 263
264 301 12 297 262 248 253 237 180 190 214 172 168 178 176 172 169 172 174 174 176 178 176 175 175 170 174 180 175 173 185 199 201 199 205 216 219 218 236 245 245 258 264 263
169 55 237 247 267 280 283 312 234 206 190 174 181 187 180 171 171 175 177 176 179 177 175 174 172 169 170 166 167 175 189 202 203 196 205 216 217 236 247 245 246 252 257 262
137 183 265 286 299 239 129 308 337 171 167 166 137 108 196 196 176 178 179 177 177 174 170 167 166 165 156 160 166 172 188 199 199 193 201 213 230 246 246 242 253 253 257 261
140 168 234 252 275 273 112 292 335 38 137 142 121 145 223 203 177 171 168 166 163 160 155 160 169 158 153 166 171 189 199 200 197 193 199 218 235 244 241 238 248 259 266 263
159 213 254 255 283 11 143 229 293 271 179 167 170 194 196 160 159 162 161 161 156 155 162 172 167 155 161 173 192 203 195 187 191 199 212 225 235 239 244 249 260 268 273 276
158 207 248 259 336 187 209 219 226 229 217 224 190 147 149 154 153 155 155 153 155 158 169 172 164 160 170 192 202 189 177 183 201 217 232 233 236 252 253 252 265 274 277 286
191 215 242 224 227 247 212 196 217 203 213 136 142 160 160 157 158 160 157 159 161 163 167 173 173 167 180 200 186 170 173 197 218 232 245 244 239 250 259 256 251 262 262 269
239 257 253 259 261 263 241 218 202 205 175 154 194 186 166 160 163 163 162 163 159 156 163 179 186 184 190 187 172 168 187 212 225 237 258 263 256 244 242 248 248 251 251 257
227 250 264 267 247 231 228 238 297 314 243 214 198 183 168 165 168 169 166 165 162 166 176 187 187 192 192 180 167 178 200 218 230 237 249 260 260 248 240 237 227 228 240 237
207 210 191 236 246 223 189 179 166 207 272 253 185 189 174 166 168 165 164 160 163 172 179 185 184 192 193 182 175 181 205 225 230 239 250 255 265 282 268 253 258 251 248 243
191 191 190 219 229 202 159 142 148 142 164 166 185 174 161 156 159 154 154 158 170 178 180 178 179 192 200 190 182 188 206 222 230 239 248 253 254 259 284 294 284 275 266 261
142 128 132 169 178 150 126 119 94 74 65 73 112 126 126 121 116 129 152 168 164 159 164 169 177 204 209 188 186 202 216 228 229 235 241 244 245 247 248 261 282 289 281 270
105 118 136 116 96 91 96 94 81 68 59 54 71 98 112 118 125 140 139 125 121 134 158 164 180 217 207 183 191 213 223 233 234 235 240 242 244 246 250 254 257 267 284 292
79 73 77 83 87 84 83 84 83 75 70 66 70 82 99 109 106 97 97 113 129 162 185 179 199 220 199 187 200 220 232 244 242 239 245 249 247 248 253 255 259 265 268 269
95 90 87 84 79 82 86 91 92 87 78 73 74 81 83 82 78 75 73 92 130 159 180 193 224 229 204 192 197 220 239 259 262 260 254 252 250 249 251 252 255 258 260 259
104 107 110 111 107 99 88 83 81 79 80 80 78 75 75 80 83 78 73 67 66 52 358 246 233 225 213 207 205 219 232 248 256 258 258 257 257 254 252 250 255 260 266 275
93 96 97 96 99 101 96 90 87 85 82 80 77 71 70 76 84 88 89 77 70 18 301 294 298 95 180 243 238 235 251 263 271 272 266 268 267 259 254 255 256 256 261 267
79 86 88 86 87 89 85 83 83 78 76 83 82 73 63 56 73 88 93 93 216 237 258 298 56 46 267 280 280 256 262 269 271 276 275 272 268 267 265 263 261 261 262 259
82 83 80 75 71 71 74 76 80 76 67 85 100 105 95 64 80 102 103 73 301 301 341 44 73 269 279 296 291 276 275 278 274 273 278 280 277 276 277 275 268 264 264 264
69 74 73 72 66 52 39 46 56 58 53 68 93 112 105 84 79 83 113 193 237 263 33 322 287 281 299 314 303 292 288 283 277 279 284 286 282 283 285 279 270 266 264 264
64 62 61 59 55 32 15 17 21 21 23 100 125 137 145 159 146 127 220 266 245 254 293 282 281 295 308 313 307 302 298 294 289 287 283 283 284 282 281 282 275 270 274 279
55 51 39 38 45 36 10 344 342 341 349 28 74 127 129 110 62 203 201 235 249 258 265 279 295 307 318 310 305 308 307 303 300 296 294 299 303 297 289 287 286 284 282 281
51 33 22 26 25 2 339 357 15 15 26 34 26 54 116 145 162 208 223 250 274 294 288 293 302 303 296 277 274 277 276 279 286 292 302 301 300 301 301 302 302 295 290 290
356 349 348 54 115 32 30 41 25 6 30 30 2 356 6 354 170 202 269 294 306 307 295 294 310 309 291 265 262 269 278 296 302 289 279 282 294 307 318 323 324 324 317 311
22 21 28 28 19 29 51 66 62 21 27 62 329 313 320 326 323 311 308 305 307 292 284 292 308 315 305 277 274 286 292 292 287 287 293 300 307 315 321 324 329 340 343 348